Time,TemperatureF,DewpointF,PressureIn,WindDirection,WindDirectionDegrees,WindSpeedMPH,WindSpeedGustMPH,Humidity,HourlyPrecipIn,Conditions,Clouds,dailyrainin,SolarRadiationWatts/m^2,SoftwareType,DateUTC
2013-04-13 00:04:00,38.3,35.9,29.85,West,263,5.0,10.0,91,0.00,RA,RA,0.00,0.0,WeatherDisplay:10.37,2013-04-13 05:04:00,
2013-04-13 00:09:00,38.3,35.9,29.85,West,262,3.0,8.0,91,0.00,CLR,CLR,0.00,0.0,WeatherDisplay:10.37,2013-04-13 05:09:00,
2013-04-13 00:19:00,38.4,36.0,29.85,West,262,5.0,7.0,91,0.00,CLR,CLR,0.00,0.0,WeatherDisplay:10.37,2013-04-13 05:19:00,
2013-04-13 00:24:00,38.4,35.7,29.85,West,264,5.0,7.0,90,0.00,CLR,CLR,0.00,0.0,WeatherDisplay:10.37,2013-04-13 05:24:00,
2013-04-13 00:29:00,38.5,35.5,29.85,West,275,5.0,9.0,89,0.00,CLR,CLR,0.00,0.0,WeatherDisplay:10.37,2013-04-13 05:29:00,
2013-04-13 00:34:00,38.5,35.0,29.85,West,278,6.0,8.0,87,0.00,CLR,CLR,0.00,0.0,WeatherDisplay:10.37,2013-04-13 05:34:00,
2013-04-13 00:44:00,38.4,34.9,29.85,West,273,5.0,8.0,87,0.00,CLR,CLR,0.00,0.0,WeatherDisplay:10.37,2013-04-13 05:44:00,
2013-04-13 00:49:00,38.4,34.6,29.85,West,272,5.0,12.0,86,0.00,CLR,CLR,0.00,0.0,WeatherDisplay:10.37,2013-04-13 05:49:00,
2013-04-13 00:54:00,38.4,34.6,29.85,West,271,3.0,8.0,86,0.00,CLR,CLR,0.00,0.0,WeatherDisplay:10.37,2013-04-13 05:54:00,
2013-04-13 00:59:00,38.4,34.3,29.85,West,273,6.0,12.0,85,0.00,CLR,CLR,0.00,0.0,WeatherDisplay:10.37,2013-04-13 05:59:00,
2013-04-13 01:04:00,38.4,34.3,29.85,West,271,5.0,9.0,85,0.00,CLR,CLR,0.00,0.0,WeatherDisplay:10.37,2013-04-13 06:04:00,
2013-04-13 01:09:00,38.5,34.1,29.85,West,274,6.0,12.0,84,0.00,CLR,CLR,0.00,0.0,WeatherDisplay:10.37,2013-04-13 06:09:00,
2013-04-13 01:19:00,38.3,33.9,29.85,West,275,5.0,13.0,84,0.00,CLR,CLR,0.00,0.0,WeatherDisplay:10.37,2013-04-13 06:19:00,
2013-04-13 01:24:00,38.2,34.1,29.86,West,275,6.0,8.0,85,0.00,CLR,CLR,0.00,0.0,WeatherDisplay:10.37,2013-04-13 06:24:00,
2013-04-13 01:29:00,38.2,33.8,29.86,West,272,6.0,10.0,84,0.00,CLR,CLR,0.00,0.0,WeatherDisplay:10.37,2013-04-13 06:29:00,
2013-04-13 01:34:00,38.2,33.5,29.86,West,272,5.0,14.0,83,0.00,CLR,CLR,0.00,0.0,WeatherDisplay:10.37,2013-04-13 06:34:00,
2013-04-13 01:44:00,38.1,34.0,29.86,West,276,3.0,7.0,85,0.00,CLR,CLR,0.00,0.0,WeatherDisplay:10.37,2013-04-13 06:44:00,
2013-04-13 01:54:00,37.9,33.5,29.86,West,270,9.0,13.0,84,0.00,CLR,CLR,0.00,0.0,WeatherDisplay:10.37,2013-04-13 06:54:00,
2013-04-13 02:04:00,37.9,33.8,29.86,West,278,6.0,10.0,85,0.00,CLR,CLR,0.00,0.0,WeatherDisplay:10.37,2013-04-13 07:04:00,
2013-04-13 02:09:00,37.8,33.7,29.86,West,275,6.0,14.0,85,0.00,CLR,CLR,0.00,0.0,WeatherDisplay:10.37,2013-04-13 07:09:00,
2013-04-13 02:14:00,37.7,33.9,29.86,West,278,3.0,7.0,86,0.00,CLR,CLR,0.00,0.0,WeatherDisplay:10.37,2013-04-13 07:14:00,
2013-04-13 02:24:00,37.6,34.1,29.86,West,278,5.0,9.0,87,0.00,CLR,CLR,0.00,0.0,WeatherDisplay:10.37,2013-04-13 07:24:00,
2013-04-13 02:29:00,37.5,34.0,29.86,West,272,5.0,9.0,87,0.00,CLR,CLR,0.00,0.0,WeatherDisplay:10.37,2013-04-13 07:29:00,
2013-04-13 02:34:00,37.3,34.1,29.85,West,275,5.0,9.0,88,0.00,CLR,CLR,0.00,0.0,WeatherDisplay:10.37,2013-04-13 07:34:00,
2013-04-13 02:39:00,37.1,34.2,29.85,West,272,3.0,8.0,89,0.00,CLR,CLR,0.00,0.0,WeatherDisplay:10.37,2013-04-13 07:39:00,
2013-04-13 02:44:00,37.1,34.1,29.85,West,273,5.0,7.0,89,0.00,CLR,CLR,0.00,0.0,WeatherDisplay:10.37,2013-04-13 07:44:00,
2013-04-13 02:49:00,37.0,34.1,29.85,West,268,5.0,9.0,89,0.00,CLR,CLR,0.00,0.0,WeatherDisplay:10.37,2013-04-13 07:49:00,
2013-04-13 02:59:00,37.0,34.1,29.85,West,265,6.0,9.0,89,0.00,CLR,CLR,0.00,0.0,WeatherDisplay:10.37,2013-04-13 07:59:00,
2013-04-13 03:04:00,37.0,34.1,29.85,West,265,5.0,9.0,89,0.00,CLR,CLR,0.00,0.0,WeatherDisplay:10.37,2013-04-13 08:04:00,
2013-04-13 03:09:00,37.0,34.1,29.85,West,263,7.0,12.0,89,0.00,CLR,CLR,0.00,0.0,WeatherDisplay:10.37,2013-04-13 08:09:00,
2013-04-13 03:14:00,37.0,34.1,29.85,West,264,5.0,9.0,89,0.00,CLR,CLR,0.00,0.0,WeatherDisplay:10.37,2013-04-13 08:14:00,
2013-04-13 03:19:00,37.0,34.1,29.85,West,261,5.0,12.0,89,0.00,CLR,CLR,0.00,0.0,WeatherDisplay:10.37,2013-04-13 08:19:00,
2013-04-13 03:29:00,37.0,33.8,29.85,West,269,6.0,10.0,88,0.00,CLR,CLR,0.00,0.0,WeatherDisplay:10.37,2013-04-13 08:29:00,
2013-04-13 03:34:00,36.9,34.0,29.85,West,272,6.0,10.0,89,0.00,CLR,CLR,0.00,0.0,WeatherDisplay:10.37,2013-04-13 08:34:00,
2013-04-13 03:39:00,36.8,33.9,29.85,West,275,2.0,8.0,89,0.00,CLR,CLR,0.00,0.0,WeatherDisplay:10.37,2013-04-13 08:39:00,
2013-04-13 03:49:00,36.6,33.9,29.85,West,266,3.0,6.0,90,0.00,CLR,CLR,0.00,0.0,WeatherDisplay:10.37,2013-04-13 08:49:00,
2013-04-13 03:59:00,36.6,33.7,29.85,West,264,5.0,9.0,89,0.00,CLR,CLR,0.00,0.0,WeatherDisplay:10.37,2013-04-13 08:59:00,
2013-04-13 04:09:00,36.6,33.7,29.85,West,270,2.0,5.0,89,0.00,CLR,CLR,0.00,0.0,WeatherDisplay:10.37,2013-04-13 09:09:00,
2013-04-13 04:19:00,36.5,33.8,29.85,West,270,2.0,6.0,90,0.00,CLR,CLR,0.00,0.0,WeatherDisplay:10.37,2013-04-13 09:19:00,
2013-04-13 04:24:00,36.4,33.7,29.84,West,266,2.0,6.0,90,0.00,CLR,CLR,0.00,0.0,WeatherDisplay:10.37,2013-04-13 09:24:00,
2013-04-13 04:29:00,36.4,34.0,29.85,WSW,253,3.0,6.0,91,0.00,CLR,CLR,0.00,0.0,WeatherDisplay:10.37,2013-04-13 09:29:00,
2013-04-13 04:34:00,36.3,33.9,29.85,WSW,250,5.0,7.0,91,0.00,CLR,CLR,0.00,0.0,WeatherDisplay:10.37,2013-04-13 09:34:00,
2013-04-13 04:39:00,36.4,34.0,29.85,WSW,249,5.0,7.0,91,0.00,CLR,CLR,0.00,0.0,WeatherDisplay:10.37,2013-04-13 09:39:00,
2013-04-13 04:44:00,36.4,34.0,29.85,WSW,246,6.0,8.0,91,0.00,CLR,CLR,0.00,0.0,WeatherDisplay:10.37,2013-04-13 09:44:00,
2013-04-13 04:54:00,36.5,34.4,29.85,WSW,239,7.0,10.0,92,0.00,CLR,CLR,0.00,0.0,WeatherDisplay:10.37,2013-04-13 09:54:00,
2013-04-13 04:59:00,36.6,34.2,29.85,WSW,242,8.0,12.0,91,0.00,CLR,CLR,0.00,0.0,WeatherDisplay:10.37,2013-04-13 09:59:00,
2013-04-13 05:04:00,36.7,34.3,29.85,WSW,246,9.0,12.0,91,0.00,CLR,CLR,0.00,0.0,WeatherDisplay:10.37,2013-04-13 10:04:00,
2013-04-13 05:09:00,36.8,34.4,29.85,WSW,253,10.0,15.0,91,0.00,CLR,CLR,0.00,0.0,WeatherDisplay:10.37,2013-04-13 10:09:00,
2013-04-13 05:19:00,36.7,34.3,29.85,WSW,248,12.0,18.0,91,0.00,CLR,CLR,0.00,0.0,WeatherDisplay:10.37,2013-04-13 10:19:00,
2013-04-13 05:29:00,36.6,34.2,29.85,WSW,252,9.0,13.0,91,0.00,CLR,CLR,0.00,0.0,WeatherDisplay:10.37,2013-04-13 10:29:00,
2013-04-13 05:34:00,36.5,34.1,29.85,WSW,256,7.0,13.0,91,0.00,CLR,CLR,0.00,0.0,WeatherDisplay:10.37,2013-04-13 10:34:00,
2013-04-13 05:39:00,36.4,33.7,29.85,WSW,257,9.0,15.0,90,0.00,CLR,CLR,0.00,0.0,WeatherDisplay:10.37,2013-04-13 10:39:00,
2013-04-13 05:44:00,36.4,34.0,29.85,WSW,254,7.0,16.0,91,0.00,CLR,CLR,0.00,0.0,WeatherDisplay:10.37,2013-04-13 10:44:00,
2013-04-13 05:49:00,36.2,33.9,29.85,WSW,253,9.0,15.0,91,0.00,CLR,CLR,0.00,0.0,WeatherDisplay:10.37,2013-04-13 10:49:00,
2013-04-13 05:59:00,36.0,33.9,29.85,WSW,255,8.0,12.0,92,0.00,CLR,CLR,0.00,0.0,WeatherDisplay:10.37,2013-04-13 10:59:00,
2013-04-13 06:04:00,35.9,33.8,29.85,WSW,256,7.0,12.0,92,0.00,CLR,CLR,0.00,0.0,WeatherDisplay:10.37,2013-04-13 11:04:00,
2013-04-13 06:14:00,35.6,33.8,29.86,West,263,5.0,10.0,93,0.00,RA,RA,0.01,0.0,WeatherDisplay:10.37,2013-04-13 11:14:00,
2013-04-13 06:24:00,35.3,33.5,29.86,West,274,6.0,12.0,93,0.00,CLR,CLR,0.01,0.0,WeatherDisplay:10.37,2013-04-13 11:24:00,
2013-04-13 06:29:00,35.1,33.3,29.86,West,272,6.0,8.0,93,0.00,CLR,CLR,0.01,0.0,WeatherDisplay:10.37,2013-04-13 11:29:00,
2013-04-13 06:34:00,35.1,33.0,29.86,West,266,7.0,12.0,92,0.00,CLR,CLR,0.01,0.0,WeatherDisplay:10.37,2013-04-13 11:34:00,
2013-04-13 06:39:00,35.1,32.7,29.86,West,265,6.0,14.0,91,0.00,CLR,CLR,0.01,0.0,WeatherDisplay:10.37,2013-04-13 11:39:00,
2013-04-13 06:49:00,35.2,32.3,29.86,West,271,6.0,12.0,89,0.00,CLR,CLR,0.01,0.0,WeatherDisplay:10.37,2013-04-13 11:49:00,
2013-04-13 06:54:00,35.3,32.4,29.86,West,266,6.0,10.0,89,0.00,CLR,CLR,0.01,0.0,WeatherDisplay:10.37,2013-04-13 11:54:00,
2013-04-13 07:04:00,35.3,32.4,29.86,West,263,5.0,10.0,89,0.00,CLR,CLR,0.01,0.0,WeatherDisplay:10.37,2013-04-13 12:04:00,
2013-04-13 07:14:00,35.5,32.3,29.86,West,261,6.0,13.0,88,0.00,CLR,CLR,0.01,0.0,WeatherDisplay:10.37,2013-04-13 12:14:00,
2013-04-13 07:19:00,35.5,32.0,29.86,West,263,6.0,12.0,87,0.00,CLR,CLR,0.01,0.0,WeatherDisplay:10.37,2013-04-13 12:19:00,
2013-04-13 07:24:00,35.7,31.9,29.87,WSW,253,8.0,15.0,86,0.00,CLR,CLR,0.01,0.0,WeatherDisplay:10.37,2013-04-13 12:24:00,
2013-04-13 07:34:00,35.8,32.0,29.87,West,260,7.0,10.0,86,0.00,CLR,CLR,0.01,0.0,WeatherDisplay:10.37,2013-04-13 12:34:00,
2013-04-13 07:39:00,35.8,32.3,29.87,West,260,8.0,14.0,87,0.00,CLR,CLR,0.01,0.0,WeatherDisplay:10.37,2013-04-13 12:39:00,
2013-04-13 07:49:00,35.9,32.4,29.87,West,265,6.0,10.0,87,0.00,CLR,CLR,0.01,0.0,WeatherDisplay:10.37,2013-04-13 12:49:00,
2013-04-13 07:59:00,36.1,32.9,29.88,West,263,6.0,10.0,88,0.00,CLR,CLR,0.01,0.0,WeatherDisplay:10.37,2013-04-13 12:59:00,
2013-04-13 08:04:00,36.3,33.1,29.88,West,268,7.0,15.0,88,0.00,CLR,CLR,0.01,0.0,WeatherDisplay:10.37,2013-04-13 13:04:00,
2013-04-13 08:09:00,36.4,32.9,29.88,West,264,6.0,13.0,87,0.00,CLR,CLR,0.01,0.0,WeatherDisplay:10.37,2013-04-13 13:09:00,
2013-04-13 08:14:00,36.4,32.9,29.88,West,264,5.0,12.0,87,0.00,CLR,CLR,0.01,0.0,WeatherDisplay:10.37,2013-04-13 13:14:00,
2013-04-13 08:19:00,36.3,32.8,29.88,West,266,6.0,12.0,87,0.00,CLR,CLR,0.01,0.0,WeatherDisplay:10.37,2013-04-13 13:19:00,
2013-04-13 08:29:00,36.4,32.0,29.89,West,268,6.0,13.0,84,0.00,CLR,CLR,0.01,0.0,WeatherDisplay:10.37,2013-04-13 13:29:00,
2013-04-13 08:39:00,36.5,32.1,29.89,West,271,5.0,12.0,84,0.00,CLR,CLR,0.01,0.0,WeatherDisplay:10.37,2013-04-13 13:39:00,
2013-04-13 08:49:00,36.7,32.0,29.89,West,269,5.0,10.0,83,0.00,CLR,CLR,0.01,0.0,WeatherDisplay:10.37,2013-04-13 13:49:00,
2013-04-13 08:59:00,36.7,32.3,29.89,West,269,6.0,12.0,84,0.00,CLR,CLR,0.01,0.0,WeatherDisplay:10.37,2013-04-13 13:59:00,
2013-04-13 09:04:00,36.7,31.4,29.89,West,269,7.0,14.0,81,0.00,CLR,CLR,0.01,0.0,WeatherDisplay:10.37,2013-04-13 14:04:00,
2013-04-13 09:14:00,36.6,31.3,29.89,West,275,8.0,12.0,81,0.00,CLR,CLR,0.01,0.0,WeatherDisplay:10.37,2013-04-13 14:14:00,
2013-04-13 09:19:00,36.6,31.6,29.89,West,275,7.0,12.0,82,0.00,CLR,CLR,0.01,0.0,WeatherDisplay:10.37,2013-04-13 14:19:00,
2013-04-13 09:24:00,36.8,32.1,29.89,WNW,284,7.0,15.0,83,0.00,CLR,CLR,0.01,0.0,WeatherDisplay:10.37,2013-04-13 14:24:00,
2013-04-13 09:34:00,37.3,31.7,29.90,West,278,9.0,13.0,80,0.00,CLR,CLR,0.01,0.0,WeatherDisplay:10.37,2013-04-13 14:34:00,
2013-04-13 09:44:00,37.3,31.4,29.90,West,280,7.0,14.0,79,0.00,CLR,CLR,0.01,0.0,WeatherDisplay:10.37,2013-04-13 14:44:00,
2013-04-13 09:54:00,37.2,31.6,29.90,West,278,7.0,12.0,80,0.00,CLR,CLR,0.01,0.0,WeatherDisplay:10.37,2013-04-13 14:54:00,
2013-04-13 10:04:00,37.2,31.6,29.91,West,274,7.0,12.0,80,0.00,CLR,CLR,0.01,0.0,WeatherDisplay:10.37,2013-04-13 15:04:00,
2013-04-13 10:09:00,37.3,32.0,29.91,West,279,6.0,12.0,81,0.00,CLR,CLR,0.01,0.0,WeatherDisplay:10.37,2013-04-13 15:09:00,
2013-04-13 10:19:00,37.1,31.8,29.91,West,279,7.0,12.0,81,0.00,CLR,CLR,0.01,0.0,WeatherDisplay:10.37,2013-04-13 15:19:00,
2013-04-13 10:24:00,37.1,32.1,29.91,West,277,6.0,13.0,82,0.00,CLR,CLR,0.01,0.0,WeatherDisplay:10.37,2013-04-13 15:24:00,
2013-04-13 10:34:00,37.8,31.9,29.91,WNW,285,8.0,16.0,79,0.00,CLR,CLR,0.01,0.0,WeatherDisplay:10.37,2013-04-13 15:34:00,
2013-04-13 10:39:00,37.8,31.6,29.92,West,276,6.0,15.0,78,0.00,CLR,CLR,0.01,0.0,WeatherDisplay:10.37,2013-04-13 15:39:00,
2013-04-13 10:44:00,38.0,32.0,29.92,West,277,7.0,12.0,79,0.00,CLR,CLR,0.01,0.0,WeatherDisplay:10.37,2013-04-13 15:44:00,
2013-04-13 10:49:00,38.6,32.6,29.92,West,275,8.0,16.0,79,0.00,CLR,CLR,0.01,0.0,WeatherDisplay:10.37,2013-04-13 15:49:00,
2013-04-13 10:54:00,38.6,31.4,29.92,West,277,7.0,14.0,75,0.00,CLR,CLR,0.01,0.0,WeatherDisplay:10.37,2013-04-13 15:54:00,
2013-04-13 11:04:00,38.4,31.5,29.92,West,275,8.0,13.0,76,0.00,CLR,CLR,0.01,0.0,WeatherDisplay:10.37,2013-04-13 16:04:00,
2013-04-13 11:09:00,39.1,32.5,29.92,West,273,7.0,15.0,77,0.00,CLR,CLR,0.01,0.0,WeatherDisplay:10.37,2013-04-13 16:09:00,
2013-04-13 11:14:00,38.9,31.7,29.93,West,273,8.0,15.0,75,0.00,CLR,CLR,0.01,0.0,WeatherDisplay:10.37,2013-04-13 16:14:00,
2013-04-13 11:29:00,39.4,31.8,29.93,West,275,7.0,12.0,74,0.00,CLR,CLR,0.01,0.0,WeatherDisplay:10.37,2013-04-13 16:29:00,
2013-04-13 11:34:00,39.6,32.3,29.93,West,275,6.0,10.0,75,0.00,CLR,CLR,0.01,0.0,WeatherDisplay:10.37,2013-04-13 16:34:00,
2013-04-13 11:39:00,40.5,33.2,29.93,West,277,7.0,12.0,75,0.00,CLR,CLR,0.01,0.0,WeatherDisplay:10.37,2013-04-13 16:39:00,
2013-04-13 11:44:00,40.1,31.4,29.93,West,274,10.0,20.0,71,0.00,CLR,CLR,0.01,0.0,WeatherDisplay:10.37,2013-04-13 16:44:00,
2013-04-13 11:49:00,39.5,31.9,29.93,West,280,8.0,15.0,74,0.00,CLR,CLR,0.01,0.0,WeatherDisplay:10.37,2013-04-13 16:49:00,
2013-04-13 11:54:00,39.3,32.0,29.93,West,278,7.0,17.0,75,0.00,CLR,CLR,0.01,0.0,WeatherDisplay:10.37,2013-04-13 16:54:00,
2013-04-13 11:59:00,39.4,32.5,29.93,West,273,8.0,12.0,76,0.00,CLR,CLR,0.01,0.0,WeatherDisplay:10.37,2013-04-13 16:59:00,
2013-04-13 12:04:00,40.2,32.9,29.93,West,276,8.0,13.0,75,0.00,CLR,CLR,0.01,0.0,WeatherDisplay:10.37,2013-04-13 17:04:00,
2013-04-13 12:09:00,40.4,32.1,29.93,West,273,8.0,13.0,72,0.00,CLR,CLR,0.01,0.0,WeatherDisplay:10.37,2013-04-13 17:09:00,
2013-04-13 12:19:00,40.6,32.6,29.93,West,273,7.0,15.0,73,0.00,CLR,CLR,0.01,0.0,WeatherDisplay:10.37,2013-04-13 17:19:00,
2013-04-13 12:24:00,41.5,33.1,29.93,West,273,8.0,14.0,72,0.00,CLR,CLR,0.01,0.0,WeatherDisplay:10.37,2013-04-13 17:24:00,
2013-04-13 12:29:00,41.4,33.4,29.93,West,268,7.0,16.0,73,0.00,CLR,CLR,0.01,0.0,WeatherDisplay:10.37,2013-04-13 17:29:00,
2013-04-13 12:39:00,41.7,33.3,29.94,West,273,9.0,14.0,72,0.00,CLR,CLR,0.01,0.0,WeatherDisplay:10.37,2013-04-13 17:39:00,
2013-04-13 12:44:00,41.7,32.6,29.94,West,270,6.0,12.0,70,0.00,CLR,CLR,0.01,0.0,WeatherDisplay:10.37,2013-04-13 17:44:00,
2013-04-13 12:59:00,41.8,32.0,29.93,West,272,8.0,16.0,68,0.00,CLR,CLR,0.01,0.0,WeatherDisplay:10.37,2013-04-13 17:59:00,
2013-04-13 13:09:00,41.6,32.6,29.93,West,272,8.0,16.0,70,0.00,CLR,CLR,0.01,0.0,WeatherDisplay:10.37,2013-04-13 18:09:00,
2013-04-13 13:14:00,42.2,33.1,29.93,West,273,9.0,14.0,70,0.00,CLR,CLR,0.01,0.0,WeatherDisplay:10.37,2013-04-13 18:14:00,
2013-04-13 13:19:00,43.2,33.8,29.93,WNW,282,8.0,15.0,69,0.00,CLR,CLR,0.01,0.0,WeatherDisplay:10.37,2013-04-13 18:19:00,
2013-04-13 13:24:00,43.4,32.4,29.93,West,280,8.0,20.0,65,0.00,CLR,CLR,0.01,0.0,WeatherDisplay:10.37,2013-04-13 18:24:00,
2013-04-13 13:29:00,43.5,32.9,29.93,West,270,7.0,17.0,66,0.00,CLR,CLR,0.01,0.0,WeatherDisplay:10.37,2013-04-13 18:29:00,
2013-04-13 13:34:00,44.2,33.2,29.93,West,271,10.0,17.0,65,0.00,CLR,CLR,0.01,0.0,WeatherDisplay:10.37,2013-04-13 18:34:00,
2013-04-13 13:39:00,43.9,32.9,29.93,West,277,8.0,16.0,65,0.00,CLR,CLR,0.01,0.0,WeatherDisplay:10.37,2013-04-13 18:39:00,
2013-04-13 13:49:00,43.9,32.9,29.93,West,271,8.0,17.0,65,0.00,CLR,CLR,0.01,0.0,WeatherDisplay:10.37,2013-04-13 18:49:00,
2013-04-13 13:54:00,44.7,32.9,29.93,West,279,9.0,13.0,63,0.00,CLR,CLR,0.01,0.0,WeatherDisplay:10.37,2013-04-13 18:54:00,
2013-04-13 13:59:00,44.6,32.8,29.93,WNW,284,10.0,15.0,63,0.00,CLR,CLR,0.01,0.0,WeatherDisplay:10.37,2013-04-13 18:59:00,
2013-04-13 14:04:00,44.3,33.7,29.94,West,279,8.0,13.0,66,0.00,CLR,CLR,0.01,0.0,WeatherDisplay:10.37,2013-04-13 19:04:00,
2013-04-13 14:09:00,44.5,33.5,29.94,WNW,282,6.0,13.0,65,0.00,CLR,CLR,0.01,0.0,WeatherDisplay:10.37,2013-04-13 19:09:00,
2013-04-13 14:14:00,44.1,31.9,29.94,West,268,10.0,17.0,62,0.00,CLR,CLR,0.01,0.0,WeatherDisplay:10.37,2013-04-13 19:14:00,
2013-04-13 14:19:00,44.0,32.6,29.94,WSW,258,9.0,15.0,64,0.00,CLR,CLR,0.01,0.0,WeatherDisplay:10.37,2013-04-13 19:19:00,
2013-04-13 14:24:00,44.8,34.1,29.93,West,277,8.0,18.0,66,0.00,CLR,CLR,0.01,0.0,WeatherDisplay:10.37,2013-04-13 19:24:00,
2013-04-13 14:29:00,45.4,34.7,29.93,West,278,10.0,15.0,66,0.00,CLR,CLR,0.01,0.0,WeatherDisplay:10.37,2013-04-13 19:29:00,
2013-04-13 14:34:00,46.5,34.6,29.93,West,265,9.0,16.0,63,0.00,CLR,CLR,0.01,0.0,WeatherDisplay:10.37,2013-04-13 19:34:00,
2013-04-13 14:39:00,47.0,34.2,29.93,WSW,256,14.0,20.0,61,0.00,CLR,CLR,0.01,0.0,WeatherDisplay:10.37,2013-04-13 19:39:00,
2013-04-13 14:44:00,47.1,34.3,29.93,WSW,258,12.0,20.0,61,0.00,CLR,CLR,0.01,0.0,WeatherDisplay:10.37,2013-04-13 19:44:00,
2013-04-13 14:49:00,45.7,33.0,29.93,WSW,256,9.0,18.0,61,0.00,CLR,CLR,0.01,0.0,WeatherDisplay:10.37,2013-04-13 19:49:00,
2013-04-13 14:54:00,45.8,32.3,29.94,WSW,257,8.0,16.0,59,0.00,CLR,CLR,0.01,0.0,WeatherDisplay:10.37,2013-04-13 19:54:00,
2013-04-13 14:59:00,46.4,34.0,29.93,WSW,256,12.0,17.0,62,0.00,CLR,CLR,0.01,0.0,WeatherDisplay:10.37,2013-04-13 19:59:00,
2013-04-13 15:04:00,47.5,35.1,29.93,WSW,253,10.0,16.0,62,0.00,CLR,CLR,0.01,0.0,WeatherDisplay:10.37,2013-04-13 20:04:00,
2013-04-13 15:09:00,48.2,34.9,29.93,WSW,253,13.0,18.0,60,0.00,CLR,CLR,0.01,0.0,WeatherDisplay:10.37,2013-04-13 20:09:00,
2013-04-13 15:14:00,47.2,32.3,29.93,West,263,7.0,12.0,56,0.00,CLR,CLR,0.01,0.0,WeatherDisplay:10.37,2013-04-13 20:14:00,
2013-04-13 15:19:00,47.6,33.9,29.93,West,274,7.0,12.0,59,0.00,CLR,CLR,0.01,0.0,WeatherDisplay:10.37,2013-04-13 20:19:00,
2013-04-13 15:24:00,48.8,33.8,29.93,West,265,9.0,15.0,56,0.00,CLR,CLR,0.01,0.0,WeatherDisplay:10.37,2013-04-13 20:24:00,
2013-04-13 15:29:00,48.1,34.8,29.93,West,271,6.0,14.0,60,0.00,CLR,CLR,0.01,0.0,WeatherDisplay:10.37,2013-04-13 20:29:00,
2013-04-13 15:34:00,48.3,33.8,29.93,WNW,286,8.0,12.0,57,0.00,CLR,CLR,0.01,0.0,WeatherDisplay:10.37,2013-04-13 20:34:00,
2013-04-13 15:39:00,48.1,32.2,29.93,West,279,8.0,16.0,54,0.00,CLR,CLR,0.01,0.0,WeatherDisplay:10.37,2013-04-13 20:39:00,
2013-04-13 15:44:00,47.1,32.2,29.93,West,269,6.0,12.0,56,0.00,CLR,CLR,0.01,0.0,WeatherDisplay:10.37,2013-04-13 20:44:00,
2013-04-13 15:49:00,47.5,34.8,29.93,West,275,7.0,14.0,61,0.00,CLR,CLR,0.01,0.0,WeatherDisplay:10.37,2013-04-13 20:49:00,
2013-04-13 15:54:00,46.6,32.2,29.93,West,273,6.0,13.0,57,0.00,CLR,CLR,0.01,0.0,WeatherDisplay:10.37,2013-04-13 20:54:00,
2013-04-13 15:59:00,46.8,34.9,29.93,West,263,7.0,12.0,63,0.00,CLR,CLR,0.01,0.0,WeatherDisplay:10.37,2013-04-13 20:59:00,
2013-04-13 16:04:00,47.5,33.9,29.92,West,265,8.0,14.0,59,0.00,CLR,CLR,0.01,0.0,WeatherDisplay:10.37,2013-04-13 21:04:00,
2013-04-13 16:09:00,47.4,33.4,29.92,West,271,7.0,14.0,58,0.00,CLR,CLR,0.01,0.0,WeatherDisplay:10.37,2013-04-13 21:09:00,
2013-04-13 16:14:00,47.8,32.8,29.92,West,261,7.0,14.0,56,0.00,CLR,CLR,0.01,0.0,WeatherDisplay:10.37,2013-04-13 21:14:00,
2013-04-13 16:19:00,47.8,34.6,29.92,West,271,8.0,12.0,60,0.00,CLR,CLR,0.01,0.0,WeatherDisplay:10.37,2013-04-13 21:19:00,
2013-04-13 16:24:00,49.3,34.2,29.92,West,272,7.0,12.0,56,0.00,CLR,CLR,0.01,0.0,WeatherDisplay:10.37,2013-04-13 21:24:00,
2013-04-13 16:29:00,48.3,33.4,29.92,West,274,8.0,12.0,56,0.00,CLR,CLR,0.01,0.0,WeatherDisplay:10.37,2013-04-13 21:29:00,
2013-04-13 16:34:00,47.8,33.7,29.92,WNW,287,7.0,12.0,58,0.00,CLR,CLR,0.01,0.0,WeatherDisplay:10.37,2013-04-13 21:34:00,
2013-04-13 16:39:00,47.5,33.4,29.92,West,274,7.0,12.0,58,0.00,CLR,CLR,0.01,0.0,WeatherDisplay:10.37,2013-04-13 21:39:00,
2013-04-13 16:44:00,46.9,33.3,29.92,West,272,6.0,9.0,59,0.00,CLR,CLR,0.01,0.0,WeatherDisplay:10.37,2013-04-13 21:44:00,
2013-04-13 16:49:00,46.5,33.8,29.92,West,275,5.0,8.0,61,0.00,CLR,CLR,0.01,0.0,WeatherDisplay:10.37,2013-04-13 21:49:00,
2013-04-13 16:59:00,46.7,33.5,29.92,WNW,285,5.0,8.0,60,0.00,CLR,CLR,0.01,0.0,WeatherDisplay:10.37,2013-04-13 21:59:00,
2013-04-13 17:04:00,46.8,33.6,29.92,WNW,282,6.0,8.0,60,0.00,CLR,CLR,0.01,0.0,WeatherDisplay:10.37,2013-04-13 22:04:00,
2013-04-13 17:09:00,46.8,33.6,29.92,West,279,6.0,7.0,60,0.00,CLR,CLR,0.01,0.0,WeatherDisplay:10.37,2013-04-13 22:09:00,
2013-04-13 17:19:00,48.2,33.7,29.92,West,275,5.0,9.0,57,0.00,CLR,CLR,0.01,0.0,WeatherDisplay:10.37,2013-04-13 22:19:00,
2013-04-13 17:24:00,47.4,32.9,29.93,West,262,8.0,13.0,57,0.00,CLR,CLR,0.01,0.0,WeatherDisplay:10.37,2013-04-13 22:24:00,
2013-04-13 17:29:00,46.7,33.5,29.93,WSW,254,5.0,12.0,60,0.00,CLR,CLR,0.01,0.0,WeatherDisplay:10.37,2013-04-13 22:29:00,
2013-04-13 17:34:00,47.2,33.6,29.93,West,259,6.0,9.0,59,0.00,CLR,CLR,0.01,0.0,WeatherDisplay:10.37,2013-04-13 22:34:00,
2013-04-13 17:44:00,47.2,33.2,29.93,West,280,6.0,12.0,58,0.00,CLR,CLR,0.01,0.0,WeatherDisplay:10.37,2013-04-13 22:44:00,
2013-04-13 17:49:00,47.1,32.6,29.92,West,277,5.0,9.0,57,0.00,CLR,CLR,0.01,0.0,WeatherDisplay:10.37,2013-04-13 22:49:00,
2013-04-13 17:54:00,46.5,33.0,29.93,West,270,5.0,9.0,59,0.00,CLR,CLR,0.01,0.0,WeatherDisplay:10.37,2013-04-13 22:54:00,
2013-04-13 17:59:00,46.4,33.7,29.93,West,261,3.0,9.0,61,0.00,CLR,CLR,0.01,0.0,WeatherDisplay:10.37,2013-04-13 22:59:00,
2013-04-13 18:04:00,46.4,34.5,29.93,West,260,2.0,7.0,63,0.00,CLR,CLR,0.01,0.0,WeatherDisplay:10.37,2013-04-13 23:04:00,
2013-04-13 18:09:00,46.7,34.8,29.93,West,266,3.0,8.0,63,0.00,CLR,CLR,0.01,0.0,WeatherDisplay:10.37,2013-04-13 23:09:00,
2013-04-13 18:14:00,47.0,33.8,29.92,West,269,5.0,9.0,60,0.00,CLR,CLR,0.01,0.0,WeatherDisplay:10.37,2013-04-13 23:14:00,
2013-04-13 18:19:00,46.7,33.1,29.92,West,268,2.0,7.0,59,0.00,CLR,CLR,0.01,0.0,WeatherDisplay:10.37,2013-04-13 23:19:00,
2013-04-13 18:24:00,46.7,34.0,29.92,WNW,287,1.0,7.0,61,0.00,CLR,CLR,0.01,0.0,WeatherDisplay:10.37,2013-04-13 23:24:00,
2013-04-13 18:29:00,47.0,33.8,29.92,WNW,289,2.0,5.0,60,0.00,CLR,CLR,0.01,0.0,WeatherDisplay:10.37,2013-04-13 23:29:00,
2013-04-13 18:34:00,46.8,34.1,29.92,West,269,2.0,5.0,61,0.00,CLR,CLR,0.01,0.0,WeatherDisplay:10.37,2013-04-13 23:34:00,
2013-04-13 18:39:00,46.5,33.8,29.92,West,261,3.0,6.0,61,0.00,CLR,CLR,0.01,0.0,WeatherDisplay:10.37,2013-04-13 23:39:00,
2013-04-13 18:44:00,46.3,34.3,29.92,West,273,3.0,6.0,63,0.00,CLR,CLR,0.01,0.0,WeatherDisplay:10.37,2013-04-13 23:44:00,
2013-04-13 18:54:00,45.5,34.0,29.92,WNW,290,2.0,4.0,64,0.00,CLR,CLR,0.01,0.0,WeatherDisplay:10.37,2013-04-13 23:54:00,
2013-04-13 18:59:00,45.0,34.3,29.92,WNW,290,1.0,3.0,66,0.00,CLR,CLR,0.01,0.0,WeatherDisplay:10.37,2013-04-13 23:59:00,
2013-04-13 19:04:00,44.6,34.3,29.92,WNW,291,0.0,2.0,67,0.00,CLR,CLR,0.01,0.0,WeatherDisplay:10.37,2013-04-14 00:04:00,
2013-04-13 19:09:00,44.2,34.3,29.92,WNW,291,1.0,3.0,68,0.00,CLR,CLR,0.01,0.0,WeatherDisplay:10.37,2013-04-14 00:09:00,
2013-04-13 19:14:00,43.9,34.8,29.92,WNW,291,1.0,1.0,70,0.00,CLR,CLR,0.01,0.0,WeatherDisplay:10.37,2013-04-14 00:14:00,
2013-04-13 19:19:00,43.6,34.8,29.92,WNW,291,0.0,2.0,71,0.00,CLR,CLR,0.01,0.0,WeatherDisplay:10.37,2013-04-14 00:19:00,
2013-04-13 19:24:00,43.3,34.8,29.92,WNW,291,0.0,1.0,72,0.00,CLR,CLR,0.01,0.0,WeatherDisplay:10.37,2013-04-14 00:24:00,
2013-04-13 19:29:00,42.8,34.4,29.92,WNW,291,0.0,0.0,72,0.00,CLR,CLR,0.01,0.0,WeatherDisplay:10.37,2013-04-14 00:29:00,
2013-04-13 19:34:00,42.4,34.0,29.92,WNW,291,0.0,0.0,72,0.00,CLR,CLR,0.01,0.0,WeatherDisplay:10.37,2013-04-14 00:34:00,
2013-04-13 19:39:00,42.0,34.3,29.92,WNW,291,0.0,0.0,74,0.00,CLR,CLR,0.01,0.0,WeatherDisplay:10.37,2013-04-14 00:39:00,
2013-04-13 19:44:00,41.7,34.3,29.92,WNW,291,0.0,0.0,75,0.00,CLR,CLR,0.01,0.0,WeatherDisplay:10.37,2013-04-14 00:44:00,
2013-04-13 19:49:00,41.4,34.4,29.93,WNW,291,0.0,0.0,76,0.00,CLR,CLR,0.01,0.0,WeatherDisplay:10.37,2013-04-14 00:49:00,
2013-04-13 19:54:00,41.1,34.1,29.93,WNW,291,0.0,0.0,76,0.00,CLR,CLR,0.01,0.0,WeatherDisplay:10.37,2013-04-14 00:54:00,
2013-04-13 19:59:00,40.7,33.7,29.93,WNW,291,0.0,0.0,76,0.00,CLR,CLR,0.01,0.0,WeatherDisplay:10.37,2013-04-14 00:59:00,
2013-04-13 20:04:00,40.3,33.4,29.93,WNW,291,0.0,0.0,76,0.00,CLR,CLR,0.01,0.0,WeatherDisplay:10.37,2013-04-14 01:04:00,
2013-04-13 20:09:00,40.1,33.5,29.93,WNW,291,1.0,2.0,77,0.00,CLR,CLR,0.01,0.0,WeatherDisplay:10.37,2013-04-14 01:09:00,
2013-04-13 20:14:00,40.2,33.6,29.93,WNW,291,0.0,2.0,77,0.00,CLR,CLR,0.01,0.0,WeatherDisplay:10.37,2013-04-14 01:14:00,
2013-04-13 20:19:00,39.7,33.0,29.93,WNW,291,0.0,0.0,77,0.00,CLR,CLR,0.01,0.0,WeatherDisplay:10.37,2013-04-14 01:19:00,
2013-04-13 20:24:00,38.9,32.9,29.94,WNW,291,0.0,0.0,79,0.00,CLR,CLR,0.01,0.0,WeatherDisplay:10.37,2013-04-14 01:24:00,
2013-04-13 20:29:00,38.3,33.0,29.93,WNW,291,0.0,0.0,81,0.00,CLR,CLR,0.01,0.0,WeatherDisplay:10.37,2013-04-14 01:29:00,
2013-04-13 20:34:00,38.1,33.4,29.93,WNW,291,0.0,1.0,83,0.00,CLR,CLR,0.01,0.0,WeatherDisplay:10.37,2013-04-14 01:34:00,
2013-04-13 20:39:00,38.0,33.3,29.94,WNW,291,0.0,0.0,83,0.00,CLR,CLR,0.01,0.0,WeatherDisplay:10.37,2013-04-14 01:39:00,
2013-04-13 20:44:00,37.9,33.2,29.93,WNW,291,0.0,0.0,83,0.00,CLR,CLR,0.01,0.0,WeatherDisplay:10.37,2013-04-14 01:44:00,
2013-04-13 20:49:00,38.0,33.9,29.93,WNW,291,0.0,0.0,85,0.00,CLR,CLR,0.01,0.0,WeatherDisplay:10.37,2013-04-14 01:49:00,
2013-04-13 20:54:00,38.0,33.6,29.93,WNW,291,1.0,3.0,84,0.00,CLR,CLR,0.01,0.0,WeatherDisplay:10.37,2013-04-14 01:54:00,
2013-04-13 20:59:00,38.5,33.8,29.93,NNW,348,2.0,3.0,83,0.00,CLR,CLR,0.01,0.0,WeatherDisplay:10.37,2013-04-14 01:59:00,
2013-04-13 21:04:00,38.7,34.0,29.93,North,5,1.0,2.0,83,0.00,CLR,CLR,0.01,0.0,WeatherDisplay:10.37,2013-04-14 02:04:00,
2013-04-13 21:09:00,38.8,34.4,29.94,North,5,0.0,2.0,84,0.00,CLR,CLR,0.01,0.0,WeatherDisplay:10.37,2013-04-14 02:09:00,
2013-04-13 21:14:00,38.8,34.4,29.94,North,5,0.0,1.0,84,0.00,CLR,CLR,0.01,0.0,WeatherDisplay:10.37,2013-04-14 02:14:00,
2013-04-13 21:19:00,38.9,34.5,29.93,North,5,1.0,2.0,84,0.00,CLR,CLR,0.01,0.0,WeatherDisplay:10.37,2013-04-14 02:19:00,
2013-04-13 21:24:00,39.1,34.7,29.94,North,5,0.0,2.0,84,0.00,CLR,CLR,0.01,0.0,WeatherDisplay:10.37,2013-04-14 02:24:00,
2013-04-13 21:29:00,39.2,35.1,29.94,North,5,1.0,3.0,85,0.00,CLR,CLR,0.01,0.0,WeatherDisplay:10.37,2013-04-14 02:29:00,
2013-04-13 21:34:00,39.2,35.1,29.94,North,5,0.0,2.0,85,0.00,CLR,CLR,0.01,0.0,WeatherDisplay:10.37,2013-04-14 02:34:00,
2013-04-13 21:39:00,39.2,35.4,29.94,North,5,1.0,2.0,86,0.00,CLR,CLR,0.01,0.0,WeatherDisplay:10.37,2013-04-14 02:39:00,
2013-04-13 21:44:00,39.2,35.4,29.94,North,5,0.0,2.0,86,0.00,CLR,CLR,0.01,0.0,WeatherDisplay:10.37,2013-04-14 02:44:00,
2013-04-13 21:49:00,39.3,35.5,29.94,North,5,0.0,2.0,86,0.00,CLR,CLR,0.01,0.0,WeatherDisplay:10.37,2013-04-14 02:49:00,
2013-04-13 21:54:00,39.3,35.5,29.94,North,5,0.0,2.0,86,0.00,CLR,CLR,0.01,0.0,WeatherDisplay:10.37,2013-04-14 02:54:00,
2013-04-13 21:59:00,39.5,35.7,29.95,North,5,0.0,2.0,86,0.00,CLR,CLR,0.01,0.0,WeatherDisplay:10.37,2013-04-14 02:59:00,
2013-04-13 22:04:00,39.6,35.8,29.95,North,5,0.0,1.0,86,0.00,CLR,CLR,0.01,0.0,WeatherDisplay:10.37,2013-04-14 03:04:00,
2013-04-13 22:09:00,39.7,36.2,29.94,North,5,1.0,2.0,87,0.00,CLR,CLR,0.01,0.0,WeatherDisplay:10.37,2013-04-14 03:09:00,
2013-04-13 22:14:00,39.7,36.2,29.94,North,5,1.0,2.0,87,0.00,CLR,CLR,0.01,0.0,WeatherDisplay:10.37,2013-04-14 03:14:00,
2013-04-13 22:19:00,39.8,36.2,29.94,North,5,0.0,2.0,87,0.00,CLR,CLR,0.01,0.0,WeatherDisplay:10.37,2013-04-14 03:19:00,
2013-04-13 22:24:00,39.9,36.4,29.95,North,5,0.0,2.0,87,0.00,CLR,CLR,0.01,0.0,WeatherDisplay:10.37,2013-04-14 03:24:00,
2013-04-13 22:29:00,40.0,36.4,29.94,North,5,0.0,1.0,87,0.00,CLR,CLR,0.01,0.0,WeatherDisplay:10.37,2013-04-14 03:29:00,
2013-04-13 22:34:00,40.1,36.5,29.94,North,5,1.0,3.0,87,0.00,CLR,CLR,0.01,0.0,WeatherDisplay:10.37,2013-04-14 03:34:00,
2013-04-13 22:39:00,40.2,36.3,29.95,North,5,1.0,3.0,86,0.00,CLR,CLR,0.01,0.0,WeatherDisplay:10.37,2013-04-14 03:39:00,
2013-04-13 22:44:00,40.2,36.7,29.95,North,5,1.0,2.0,87,0.00,CLR,CLR,0.01,0.0,WeatherDisplay:10.37,2013-04-14 03:44:00,
2013-04-13 22:49:00,40.3,36.7,29.94,North,5,0.0,1.0,87,0.00,CLR,CLR,0.01,0.0,WeatherDisplay:10.37,2013-04-14 03:49:00,
2013-04-13 22:54:00,40.3,36.4,29.94,North,5,0.0,2.0,86,0.00,CLR,CLR,0.01,0.0,WeatherDisplay:10.37,2013-04-14 03:54:00,
2013-04-13 22:59:00,40.4,36.5,29.95,North,5,0.0,1.0,86,0.00,CLR,CLR,0.01,0.0,WeatherDisplay:10.37,2013-04-14 03:59:00,
2013-04-13 23:04:00,40.4,36.8,29.95,North,5,0.0,1.0,87,0.00,CLR,CLR,0.01,0.0,WeatherDisplay:10.37,2013-04-14 04:04:00,
2013-04-13 23:09:00,40.3,36.7,29.95,North,5,0.0,2.0,87,0.00,CLR,CLR,0.01,0.0,WeatherDisplay:10.37,2013-04-14 04:09:00,
2013-04-13 23:14:00,40.3,36.7,29.95,North,5,0.0,1.0,87,0.00,CLR,CLR,0.01,0.0,WeatherDisplay:10.37,2013-04-14 04:14:00,
2013-04-13 23:19:00,40.3,36.7,29.95,North,5,0.0,2.0,87,0.00,CLR,CLR,0.01,0.0,WeatherDisplay:10.37,2013-04-14 04:19:00,
2013-04-13 23:24:00,40.4,36.5,29.95,North,5,0.0,1.0,86,0.00,CLR,CLR,0.01,0.0,WeatherDisplay:10.37,2013-04-14 04:24:00,
2013-04-13 23:29:00,40.5,36.9,29.95,North,5,1.0,1.0,87,0.00,CLR,CLR,0.01,0.0,WeatherDisplay:10.37,2013-04-14 04:29:00,
2013-04-13 23:34:00,40.4,36.8,29.95,North,5,0.0,1.0,87,0.00,CLR,CLR,0.01,0.0,WeatherDisplay:10.37,2013-04-14 04:34:00,
2013-04-13 23:39:00,40.5,36.9,29.95,North,5,1.0,2.0,87,0.00,CLR,CLR,0.01,0.0,WeatherDisplay:10.37,2013-04-14 04:39:00,
2013-04-13 23:44:00,40.5,36.9,29.96,North,6,1.0,3.0,87,0.00,CLR,CLR,0.01,0.0,WeatherDisplay:10.37,2013-04-14 04:44:00,
2013-04-13 23:49:00,40.5,36.4,29.95,NNE,12,1.0,3.0,85,0.00,CLR,CLR,0.01,0.0,WeatherDisplay:10.37,2013-04-14 04:49:00,
2013-04-13 23:54:00,40.6,36.7,29.95,NNE,15,1.0,2.0,86,0.00,CLR,CLR,0.01,0.0,WeatherDisplay:10.37,2013-04-14 04:54:00,
2013-04-13 23:59:00,40.6,36.4,29.96,NNE,15,0.0,1.0,85,0.00,RA,RA,0.00,0.0,WeatherDisplay:10.37,2013-04-14 04:59:00,